Location: Wroclaw
(51.1000°N, 17.0330°E)
Time: 13:54:33
(UTC+01:00)

ISS - Visible Passes

Search period start: 28 November 2023 00:00
Search period end: 08 December 2023 00:00
Orbit: 417 x 417 km, 51.6° (Epoch: 28 November)

Date Brightness Start Highest point End Pass type
(mag) Time Alt. Az. Time Alt. Az. Time Alt. Az.
28 Nov -3.9 17:29:44 10° W 17:33:07 84° N 17:34:22 36° E visible
28 Nov -0.6 19:06:34 10° W 19:07:17 15° W 19:07:17 15° W visible
29 Nov -3.8 16:41:25 10° W 16:44:48 79° N 16:48:05 11° E visible
29 Nov -2.9 18:18:12 10° W 18:21:00 48° WSW 18:21:00 48° WSW visible
30 Nov -3.6 17:29:51 10° W 17:33:13 72° SSW 17:34:46 29° ESE visible
30 Nov -0.5 19:06:57 10° W 19:07:41 14° WSW 19:07:41 14° WSW visible
01 Dec -3.8 16:41:28 10° W 16:44:51 87° S 16:48:12 10° ESE visible
01 Dec -2.2 18:18:21 10° W 18:21:22 30° SSW 18:21:31 30° SSW visible
02 Dec -2.7 17:29:50 10° W 17:33:02 42° SSW 17:35:27 16° SE visible
03 Dec -3.1 16:41:19 10° W 16:44:38 58° SSW 16:47:56 10° ESE visible
03 Dec -1.0 18:18:46 10° WSW 18:20:52 16° SW 18:22:30 12° S visible
04 Dec -1.4 17:29:51 10° W 17:32:33 23° SW 17:35:14 10° SSE visible
05 Dec -1.9 16:41:05 10° W 16:44:08 32° SSW 16:47:09 10° SE visible
06 Dec -0.4 17:30:41 10° WSW 17:31:42 11° SW 17:32:44 10° SSW visible
07 Dec -0.7 16:41:04 10° W 16:43:18 17° SW 16:45:31 10° S visible
